Location: Newark
(55.7083°N, 13.1992°E)
Time: 15:58:58
(UTC+00:00)

Explorer 7 - All Passes

Search period start: 19 February 2020 00:00
Search period end: 29 February 2020 00:00
Orbit: 485 x 679 km, 50.3° (Epoch: 18 February)

Date Brightness Start Highest point End Pass type
(mag) Time Alt. Az. Time Alt. Az. Time Alt. Az.
19 Feb - 12:59:32 10° SSW 13:03:10 25° SSE 13:06:38 10° E daylight
19 Feb - 14:39:03 10° WSW 14:43:07 39° S 14:46:57 10° ESE daylight
19 Feb - 16:19:22 10° W 16:23:07 32° SSW 16:26:41 10° SE daylight
19 Feb - 18:00:37 10° WSW 18:02:44 14° SW 18:04:48 10° S visible
20 Feb - 11:26:17 10° SSE 11:28:14 13° SE 11:30:08 10° ESE daylight
20 Feb - 13:03:59 10° SW 13:07:54 30° SSE 13:11:36 10° E daylight
20 Feb - 14:43:49 10° WSW 14:47:55 40° S 14:51:46 10° ESE daylight
20 Feb - 16:24:17 10° W 16:27:52 27° SSW 16:31:15 10° SE daylight
21 Feb - 11:29:54 10° S 11:32:51 17° SSE 11:35:42 10° ESE daylight
21 Feb - 13:08:34 10° SW 13:12:39 35° SSE 13:16:30 10° E daylight
21 Feb - 14:48:38 10° WSW 14:52:42 39° S 14:56:32 10° ESE daylight
21 Feb - 16:29:15 10° WSW 16:32:33 22° SSW 16:35:41 10° SSE daylight
22 Feb - 11:33:59 10° SSW 11:37:31 22° SSE 11:40:53 10° ESE daylight
22 Feb - 13:13:14 10° WSW 13:17:25 38° S 13:21:22 10° ESE daylight
22 Feb - 14:53:28 10° WSW 14:57:28 36° SSW 15:01:15 10° SE daylight
22 Feb - 16:34:23 10° WSW 16:37:12 18° SSW 16:39:55 10° S daylight
23 Feb - 10:01:55 10° SSE 10:02:39 10° SE 10:03:23 10° SE daylight
23 Feb - 11:38:20 10° SW 11:42:13 27° SSE 11:45:55 10° E daylight
23 Feb - 13:17:59 10° WSW 13:22:12 41° S 13:26:11 10° ESE daylight
23 Feb - 14:58:21 10° W 15:02:14 32° SSW 15:05:53 10° SE daylight
23 Feb - 16:39:48 10° WSW 16:41:48 13° SW 16:43:45 10° S daylight
24 Feb - 10:04:41 10° S 10:07:14 15° SE 10:09:43 10° ESE daylight
24 Feb - 11:42:50 10° SW 11:46:57 32° SSE 11:50:52 10° E daylight
24 Feb - 13:22:46 10° WSW 13:27:00 41° S 13:30:59 10° ESE daylight
24 Feb - 15:03:17 10° W 15:06:57 27° SSW 15:10:25 10° SE daylight
25 Feb - 10:08:32 10° SSW 10:11:51 19° SSE 10:15:04 10° ESE daylight
25 Feb - 11:47:26 10° SW 11:51:42 37° SSE 11:55:44 10° E daylight
25 Feb - 13:27:35 10° WSW 13:31:47 39° S 13:35:44 10° ESE daylight
25 Feb - 15:08:17 10° W 15:11:37 22° SSW 15:14:48 10° SSE daylight
26 Feb - 10:12:43 10° SSW 10:16:31 24° SSE 10:20:10 10° E daylight
26 Feb - 11:52:08 10° WSW 11:56:28 40° S 12:00:35 10° ESE daylight
26 Feb - 13:32:26 10° W 13:36:33 36° SSW 13:40:25 10° SE daylight
26 Feb - 15:13:27 10° WSW 15:16:15 17° SW 15:18:57 10° S daylight
27 Feb - 08:39:46 10° SSE 08:41:37 12° SE 08:43:26 10° ESE daylight
27 Feb - 10:17:08 10° SW 10:21:14 30° SSE 10:25:09 10° E daylight
27 Feb - 11:56:53 10° WSW 12:01:16 42° S 12:05:24 10° ESE daylight
27 Feb - 13:37:19 10° W 13:41:17 31° SSW 13:45:02 10° SE daylight
27 Feb - 15:18:58 10° WSW 15:20:49 13° SW 15:22:39 10° SSW daylight
28 Feb - 08:43:13 10° S 08:46:12 17° SE 08:49:07 10° ESE daylight
28 Feb - 10:21:40 10° SW 10:25:58 35° SSE 10:30:04 10° E daylight
28 Feb - 12:01:41 10° WSW 12:06:03 42° S 12:10:11 10° ESE daylight
28 Feb - 13:42:15 10° W 13:45:59 26° SSW 13:49:32 10° SSE daylight
